Date String (YYYY-MM-DD hh:mm:ss) UTC,Instrument flags,Ambient pressure (hPa),Sample flow (lpm),Bypass flow (lpm),Sample temperature (°C),Ambient temperature (°C),ASC tube jacket temperature (°C),LED temperature (°C),Box temperature (°C),Sample RH (%),Span deviation,Mass concentration (μg/m³),Mass concentration (μg/m³),Mass concentration (μg/m³)
DateTimeUTC,F1_M11,P_M11,Q1_M11,Q2_M11,T1_M11,T2_M11,T3_M11,T4_M11,T5_M11,U1_M11,ZSPAN_M11,X0_M11,X2_M11,X1_M11
2023-01-09 19:00:00,,0822.7,5.00,0.00,23.4,21.9,00.0,32.3,25.1,11.6,0000.0,0009.26,0002.61,0001.58
2023-01-09 19:01:00,,0822.6,5.00,0.00,23.4,21.8,00.0,32.3,25.1,11.7,0000.0,0009.38,0002.77,0001.68
2023-01-09 19:02:00,,0822.7,4.99,0.00,23.4,21.8,00.0,32.3,25.1,11.6,0000.0,0009.43,0002.97,0001.79
2023-01-09 19:03:00,,0822.6,5.00,0.00,23.4,21.8,00.0,32.3,25.1,11.6,0000.0,0009.83,0003.11,0001.90
2023-01-09 19:04:00,,0822.6,5.00,0.00,23.4,21.8,00.0,32.3,25.1,11.7,0000.0,0010.20,0003.22,0002.01
2023-01-09 19:05:00,,0822.6,5.00,0.00,23.4,21.8,00.0,32.3,25.1,11.8,0000.0,0011.36,0003.30,0002.12
2023-01-09 19:06:00,,0822.6,5.01,0.00,23.4,21.8,00.0,32.3,25.1,11.9,0000.0,0010.97,0003.36,0002.22
2023-01-09 19:07:00,,0822.6,5.00,0.00,23.4,21.9,00.0,32.3,25.1,12.0,0000.0,0010.03,0003.44,0002.32
2023-01-09 19:08:00,,0822.6,5.00,0.00,23.3,21.9,00.0,32.3,25.1,12.0,0000.0,0010.02,0003.51,0002.44
2023-01-09 19:09:00,,0822.6,5.00,0.00,23.3,21.8,00.0,32.3,25.1,12.0,0000.0,0010.13,0003.60,0002.58
2023-01-09 19:10:00,,0822.5,4.99,0.00,23.3,21.8,00.0,32.2,25.1,12.0,0000.0,0011.11,0003.70,0002.75
2023-01-09 19:11:00,,0822.4,5.00,0.00,23.3,21.7,00.0,32.2,25.0,12.0,0000.0,0011.51,0003.83,0002.93
2023-01-09 19:12:00,,0822.4,5.02,0.00,23.3,21.7,00.0,32.2,25.0,12.1,0000.0,0011.79,0003.97,0003.07
2023-01-09 19:13:00,,0822.4,5.00,0.00,23.3,21.7,00.0,32.2,25.0,12.1,0000.0,0012.32,0004.06,0003.20
2023-01-09 19:14:00,,0822.4,5.00,0.00,23.3,21.6,00.0,32.2,24.9,12.3,0000.0,0013.03,0004.11,0003.28
2023-01-09 19:15:00,,0822.4,4.99,0.00,23.3,21.6,00.0,32.2,24.9,12.2,0000.0,0013.47,0004.21,0003.37
2023-01-09 19:16:00,,0822.3,4.99,0.00,23.2,21.6,00.0,32.2,24.9,12.2,0000.0,0012.46,0004.35,0003.47
2023-01-09 19:17:00,,0822.4,5.00,0.00,23.2,21.6,00.0,32.2,24.9,12.5,0000.0,0012.56,0004.47,0003.57
2023-01-09 19:18:00,,0822.4,4.99,0.00,23.2,21.7,00.0,32.2,25.0,12.4,0000.0,0012.85,0004.61,0003.68
2023-01-09 19:19:00,,0822.3,5.00,0.00,23.2,21.8,00.0,32.1,25.0,12.3,0000.0,0013.20,0004.73,0003.77
2023-01-09 19:20:00,,0822.4,5.00,0.00,23.3,21.8,00.0,32.1,25.0,12.3,0000.0,0013.56,0004.82,0003.84
2023-01-09 19:21:00,,0822.3,4.99,0.00,23.3,21.9,00.0,32.1,25.0,12.5,0000.0,0013.46,0004.93,0003.90
2023-01-09 19:22:00,,0822.3,5.00,0.00,23.3,21.9,00.0,32.1,25.1,12.6,0000.0,0013.75,0004.98,0003.94
2023-01-09 19:23:00,,0822.2,5.01,0.00,23.3,22.0,00.0,32.1,25.1,12.3,0000.0,0014.72,0005.01,0004.00
2023-01-09 19:24:00,,0822.2,5.01,0.00,23.3,22.1,00.0,32.1,25.1,12.2,0000.0,0014.24,0005.06,0004.04
2023-01-09 19:25:00,,0822.2,4.99,0.00,23.3,22.1,00.0,32.1,25.1,12.2,0000.0,0013.86,0005.11,0004.08
2023-01-09 19:26:00,,0822.2,4.98,0.00,23.3,22.1,00.0,32.1,25.1,12.2,0000.0,0013.28,0005.09,0004.10
2023-01-09 19:27:00,,0822.2,5.00,0.00,23.3,22.1,00.0,32.2,25.1,12.1,0000.0,0013.48,0005.10,0004.12
2023-01-09 19:28:00,,0822.1,5.00,0.00,23.3,22.1,00.0,32.2,25.1,11.9,0000.0,0014.25,0005.13,0004.16
2023-01-09 19:29:00,,0822.2,5.01,0.00,23.3,22.1,00.0,32.2,25.1,11.8,0000.0,0014.61,0005.08,0004.17
2023-01-09 19:30:00,,0822.1,5.01,0.00,23.3,22.0,00.0,32.2,25.1,11.7,0000.0,0014.60,0005.08,0004.19
2023-01-09 19:31:00,,0822.1,5.00,0.00,23.3,22.0,00.0,32.2,25.1,11.7,0000.0,0014.83,0005.11,0004.21
2023-01-09 19:32:00,,0822.1,5.00,0.00,23.3,21.9,00.0,32.2,25.1,11.7,0000.0,0014.96,0005.12,0004.23
2023-01-09 19:33:00,,0822.1,5.00,0.00,23.3,21.9,00.0,32.2,25.1,11.9,0000.0,0014.87,0005.15,0004.25
2023-01-09 19:34:00,,0822.1,5.00,0.00,23.3,21.9,00.0,32.2,25.1,11.9,0000.0,0013.77,0005.14,0004.26
2023-01-09 19:35:00,,0822.1,4.99,0.00,23.3,21.9,00.0,32.2,25.1,11.9,0000.0,0014.10,0005.12,0004.26
2023-01-09 19:36:00,,0822.2,5.00,0.00,23.3,21.9,00.0,32.2,25.1,12.0,0000.0,0014.20,0005.12,0004.27
2023-01-09 19:37:00,,0822.2,4.99,0.00,23.3,22.0,00.0,32.2,25.1,12.0,0000.0,0014.52,0005.16,0004.28
2023-01-09 19:38:00,,0822.3,5.00,0.00,23.3,22.1,00.0,32.2,25.1,12.1,0000.0,0014.30,0005.18,0004.28
2023-01-09 19:39:00,,0822.3,5.00,0.00,23.4,22.1,00.0,32.2,25.1,13.2,0000.0,0013.74,0005.16,0004.26
2023-01-09 19:40:00,,0822.3,5.00,0.00,23.4,22.2,00.0,32.2,25.1,12.8,0000.0,0013.50,0005.22,0004.27
2023-01-09 19:41:00,,0822.3,5.00,0.00,23.4,22.2,00.0,32.2,25.1,12.5,0000.0,0014.13,0005.27,0004.28
2023-01-09 19:42:00,,0822.2,5.00,0.00,23.4,22.3,00.0,32.2,25.2,12.6,0000.0,0014.22,0005.29,0004.28
2023-01-09 19:43:00,,0822.2,5.00,0.00,23.4,22.3,00.0,32.2,25.2,12.7,0000.0,0013.87,0005.26,0004.28
2023-01-09 19:44:00,,0822.2,5.01,0.00,23.4,22.3,00.0,32.2,25.2,12.6,0000.0,0013.66,0005.21,0004.28
2023-01-09 19:45:00,,0822.2,5.00,0.00,23.4,22.4,00.0,32.2,25.2,12.6,0000.0,0014.06,0005.24,0004.29
2023-01-09 19:46:00,,0822.2,5.01,0.00,23.5,22.4,00.0,32.2,25.3,12.5,0000.0,0013.81,0005.26,0004.31
2023-01-09 19:47:00,,0822.2,5.00,0.00,23.5,22.4,00.0,32.2,25.3,12.7,0000.0,0013.49,0005.29,0004.32
2023-01-09 19:48:00,,0822.2,4.98,0.00,23.5,22.4,00.0,32.3,25.3,12.9,0000.0,0013.66,0005.32,0004.33
2023-01-09 19:49:00,,0822.1,4.99,0.00,23.5,22.5,00.0,32.3,25.4,12.7,0000.0,0013.52,0005.30,0004.33
2023-01-09 19:50:00,,0822.1,5.02,0.00,23.5,22.5,00.0,32.3,25.4,12.4,0000.0,0013.17,0005.28,0004.35
2023-01-09 19:51:00,,0822.1,4.98,0.00,23.5,22.5,00.0,32.3,25.4,12.3,0000.0,0012.96,0005.25,0004.37
2023-01-09 19:52:00,,0822.0,4.98,0.00,23.6,22.4,00.0,32.3,25.4,11.9,0000.0,0012.91,0005.24,0004.38
2023-01-09 19:53:00,,0821.9,5.00,0.00,23.5,22.4,00.0,32.3,25.4,11.6,0000.0,0012.53,0005.24,0004.39
2023-01-09 19:54:00,,0821.8,5.01,0.00,23.5,22.3,00.0,32.3,25.3,11.5,0000.0,0012.35,0005.28,0004.40
2023-01-09 19:55:00,,0821.8,5.00,0.00,23.5,22.2,00.0,32.3,25.3,11.7,0000.0,0012.38,0005.31,0004.40
2023-01-09 19:56:00,,0821.8,5.00,0.00,23.5,22.3,00.0,32.3,25.3,11.9,0000.0,0012.53,0005.30,0004.38
2023-01-09 19:57:00,,0821.7,5.01,0.00,23.5,22.3,00.0,32.3,25.3,12.2,0000.0,0013.41,0005.31,0004.35
2023-01-09 19:58:00,,0821.7,5.00,0.00,23.5,22.2,00.0,32.3,25.3,12.0,0000.0,0014.33,0005.31,0004.31
2023-01-09 19:59:00,,0821.7,5.00,0.00,23.5,22.2,00.0,32.3,25.3,11.6,0000.0,0013.99,0005.30,0004.28
